Погода в Старой Бряни

Россия / Республика Бурятия     51°35′03″N   108°08′01″E
темп.,
°C
ветер,
м/с
пор.,
м/с
влажн.,
%
обл.,
%
осадки,
мм/ч
давл.,
гПа
погр.,
м
8 марта, пн
пн823:00−9ююз229255 0.0 101823
02:00−8ююз229078 0.0 101921
05:00−9юз129099 0.0 101821
08:00−8юз2288100 0.0 102226
11:00−1зсз367918 0.0 1021990
14:00−1сз588249 0.1 10231089
17:00−5сз488383 0.1 1024705
20:00−11зюз118952 0.1 102821
9 марта, вт
вт923:00−11ююз23876 0.0 102926
02:00−11ю22883 0.0 102821
05:00−11ююв22900 0.0 102521
08:00−11ю22930 0.0 102428
11:00−3ююв13823 0.0 1019301
14:00+1ююз287226 0.0 1016739
17:00−1сз248093 0.0 1017543
20:00−7сз229296 0.0 102221
10 марта, ср
ср1023:00−9з129097 0.0 102521
02:00−8юз238549 0.0 102725
05:00−9з129026 0.0 102921
08:00−9юз229114 0.0 103123
11:00−2зюз12640 0.0 1029546
14:00−1ююз236936 0.0 1026846
17:00−1ю24754 0.0 1024558
20:00−7ю22872 0.0 102521
11 марта, чт
чт1123:00−7ю22880 0.0 102621
02:00−8ю22886 0.0 102521
05:00−9ю228941 0.0 102621
08:00−9ю129026 0.0 102621
11:00−1ю13790 0.0 1025363
14:000ю25790 0.0 1022491
17:00+1ю27810 0.0 1022465
20:00−5ю33890 0.0 102434
12 марта, пт
пт1223:00−6ю36850 0.0 102493
02:00−6ю48790 0.0 1023172
05:00−7ю38820 0.0 1023151
08:00−5ю416710 0.0 1022365
11:00+2ююз7165727 0.0 1018797
14:00+4юз5115849 0.0 1016956
17:000зсз3872100 0.0 1018542
20:00−4з1294100 0.0 102223